Year,Month,Day,Hour,Minute,Value (Times are PST for temperature in C)
2012,04,26,11,09,11.60
2012,04,26,11,10,11.60
2012,04,26,11,11,11.60
2012,04,26,11,12,11.60
2012,04,26,11,13,11.60
2012,04,26,11,14,11.60
2012,04,26,11,15,11.60
2012,04,26,11,16,11.60
2012,04,26,11,17,11.60
2012,04,26,11,18,11.60
2012,04,26,11,19,11.60
2012,04,26,11,20,11.60
2012,04,26,11,21,11.70
2012,04,26,11,22,11.70
2012,04,26,11,23,11.70
2012,04,26,11,24,11.70
2012,04,26,11,25,11.70
2012,04,26,11,26,11.70
2012,04,26,11,27,11.70
2012,04,26,11,28,11.70
2012,04,26,11,29,11.80
2012,04,26,11,30,11.80
2012,04,26,11,31,11.80
2012,04,26,11,32,11.70
2012,04,26,11,33,11.70
2012,04,26,11,34,11.70
2012,04,26,11,35,11.80
2012,04,26,11,36,11.80
2012,04,26,11,37,11.80
2012,04,26,11,38,11.80
2012,04,26,11,39,11.80
2012,04,26,11,40,11.80
2012,04,26,11,41,11.80
2012,04,26,11,42,11.80
2012,04,26,11,43,11.80
2012,04,26,11,44,11.80
2012,04,26,11,45,11.80
2012,04,26,11,46,11.80
2012,04,26,11,47,11.80
2012,04,26,11,48,11.80
2012,04,26,11,49,11.90
2012,04,26,11,50,11.90
2012,04,26,11,51,12.00
2012,04,26,11,52,12.00
2012,04,26,11,53,12.10
2012,04,26,11,54,12.20
2012,04,26,11,55,12.20
2012,04,26,11,56,12.30
2012,04,26,11,57,12.40
2012,04,26,11,58,12.40
2012,04,26,11,59,12.40
2012,04,26,12,00,12.40
2012,04,26,12,01,12.30
2012,04,26,12,02,12.30
2012,04,26,12,03,12.30
2012,04,26,12,04,12.30
2012,04,26,12,05,12.30
2012,04,26,12,06,12.30
2012,04,26,12,07,12.40
2012,04,26,12,08,12.40
2012,04,26,12,09,12.40
2012,04,26,12,10,12.40
2012,04,26,12,11,12.40
2012,04,26,12,12,12.40
2012,04,26,12,13,12.50
2012,04,26,12,14,12.60
2012,04,26,12,15,12.60
2012,04,26,12,16,12.70
2012,04,26,12,17,12.70
2012,04,26,12,18,12.70
2012,04,26,12,19,12.70
2012,04,26,12,20,12.70
2012,04,26,12,21,12.70
2012,04,26,12,22,12.70
2012,04,26,12,23,12.70
2012,04,26,12,24,12.70
2012,04,26,12,25,12.70
2012,04,26,12,26,12.70
2012,04,26,12,27,12.70
2012,04,26,12,28,12.70
2012,04,26,12,29,12.70
2012,04,26,12,30,12.80
2012,04,26,12,31,12.80
2012,04,26,12,32,12.80
2012,04,26,12,33,12.90
2012,04,26,12,34,12.90
2012,04,26,12,35,13.00
2012,04,26,12,36,13.00
2012,04,26,12,37,13.10
2012,04,26,12,38,13.20
2012,04,26,12,39,13.20
2012,04,26,12,40,13.20
2012,04,26,12,41,13.20
2012,04,26,12,42,13.30
2012,04,26,12,43,13.40
2012,04,26,12,44,13.30
2012,04,26,12,45,13.30
2012,04,26,12,46,13.20
2012,04,26,12,47,13.20
2012,04,26,12,48,13.20
2012,04,26,12,49,13.20
2012,04,26,12,50,13.20
2012,04,26,12,51,13.20
2012,04,26,12,52,13.20
2012,04,26,12,53,13.30
2012,04,26,12,54,13.30
2012,04,26,12,55,13.30
2012,04,26,12,56,13.30
2012,04,26,12,57,13.30
2012,04,26,12,58,13.30
2012,04,26,12,59,13.30
2012,04,26,13,00,13.30
2012,04,26,13,01,13.30
2012,04,26,13,02,13.30
2012,04,26,13,03,13.30
2012,04,26,13,04,13.40
2012,04,26,13,05,13.40
2012,04,26,13,06,13.40
2012,04,26,13,07,13.40
2012,04,26,13,08,13.40
2012,04,26,13,09,13.40
2012,04,26,13,10,13.40
2012,04,26,13,11,13.50
2012,04,26,13,12,13.40
2012,04,26,13,13,13.50
2012,04,26,13,14,13.50
2012,04,26,13,15,13.50
2012,04,26,13,16,13.50
2012,04,26,13,17,13.50
2012,04,26,13,18,13.60
2012,04,26,13,19,13.70
2012,04,26,13,20,13.60
2012,04,26,13,21,13.60
2012,04,26,13,22,13.60
2012,04,26,13,23,13.60
2012,04,26,13,24,13.50
2012,04,26,13,25,13.40
2012,04,26,13,26,13.40
2012,04,26,13,27,13.40
2012,04,26,13,28,13.40
2012,04,26,13,29,13.40
2012,04,26,13,30,13.40
2012,04,26,13,31,13.40
2012,04,26,13,32,13.40
2012,04,26,13,33,13.40
2012,04,26,13,34,13.40
2012,04,26,13,35,13.40
2012,04,26,13,36,13.40
2012,04,26,13,37,13.40
2012,04,26,13,38,13.50
2012,04,26,13,39,13.50
2012,04,26,13,40,13.60
2012,04,26,13,41,13.50
2012,04,26,13,42,13.40
2012,04,26,13,43,13.30
2012,04,26,13,44,13.30
2012,04,26,13,45,13.30
2012,04,26,13,46,13.40
2012,04,26,13,47,13.40
2012,04,26,13,48,13.50
2012,04,26,13,49,13.50
2012,04,26,13,50,13.60
2012,04,26,13,51,13.60
2012,04,26,13,52,13.70
2012,04,26,13,53,13.70
2012,04,26,13,54,13.70
2012,04,26,13,55,13.70
2012,04,26,13,56,13.70
2012,04,26,13,57,13.80
2012,04,26,13,58,14.00
2012,04,26,13,59,14.10
2012,04,26,14,00,14.10
2012,04,26,14,01,14.10
2012,04,26,14,02,14.10
2012,04,26,14,03,14.00
2012,04,26,14,04,13.90
2012,04,26,14,05,13.80
2012,04,26,14,06,13.80
2012,04,26,14,07,13.70
2012,04,26,14,08,13.70
2012,04,26,14,09,13.60
2012,04,26,14,10,13.60
2012,04,26,14,11,13.50
2012,04,26,14,12,13.50
2012,04,26,14,13,13.40
2012,04,26,14,14,13.50
2012,04,26,14,15,13.60
2012,04,26,14,16,13.70
2012,04,26,14,17,13.70
2012,04,26,14,18,13.70
2012,04,26,14,19,13.70
2012,04,26,14,20,13.80
2012,04,26,14,21,13.80
2012,04,26,14,22,13.80
2012,04,26,14,23,13.80
2012,04,26,14,24,13.80
2012,04,26,14,25,13.90
2012,04,26,14,26,13.90
2012,04,26,14,27,14.00
2012,04,26,14,28,13.90
2012,04,26,14,29,13.90
2012,04,26,14,30,13.90
2012,04,26,14,31,13.90
2012,04,26,14,32,13.90
2012,04,26,14,33,13.90
2012,04,26,14,34,13.90
2012,04,26,14,35,13.90
2012,04,26,14,36,13.90
2012,04,26,14,37,13.80
2012,04,26,14,38,13.70
2012,04,26,14,39,13.70
2012,04,26,14,40,13.70
2012,04,26,14,41,13.70
2012,04,26,14,42,13.70
2012,04,26,14,43,13.70
2012,04,26,14,44,13.70
2012,04,26,14,45,13.70
2012,04,26,14,46,13.60
2012,04,26,14,47,13.60
2012,04,26,14,48,13.50
2012,04,26,14,49,13.40
2012,04,26,14,50,13.20
2012,04,26,14,51,13.00
2012,04,26,14,52,12.90
2012,04,26,14,53,12.90
2012,04,26,14,54,12.80
2012,04,26,14,55,12.80
2012,04,26,14,56,12.80
2012,04,26,14,57,12.90
2012,04,26,14,58,12.90
2012,04,26,14,59,13.00
2012,04,26,15,00,13.00
2012,04,26,15,01,13.20
2012,04,26,15,02,13.20
2012,04,26,15,03,13.30
2012,04,26,15,04,13.30
2012,04,26,15,05,13.40
2012,04,26,15,06,13.40
2012,04,26,15,07,13.40
2012,04,26,15,08,13.30
2012,04,26,15,09,13.20
2012,04,26,15,10,13.20
2012,04,26,15,11,13.20
2012,04,26,15,12,13.20
2012,04,26,15,13,13.20
2012,04,26,15,14,13.30
2012,04,26,15,15,13.40
2012,04,26,15,16,13.50
2012,04,26,15,17,13.60
2012,04,26,15,18,13.70
2012,04,26,15,19,13.80
2012,04,26,15,20,13.80
2012,04,26,15,21,13.80
2012,04,26,15,22,13.80
2012,04,26,15,23,13.80
2012,04,26,15,24,13.70
2012,04,26,15,25,13.60
2012,04,26,15,26,13.60
2012,04,26,15,27,13.50
2012,04,26,15,28,13.50
2012,04,26,15,29,13.60
2012,04,26,15,30,13.70
2012,04,26,15,31,13.80
2012,04,26,15,32,13.90
2012,04,26,15,33,13.90
2012,04,26,15,34,13.90
2012,04,26,15,35,13.80
2012,04,26,15,36,13.90
2012,04,26,15,37,13.90
2012,04,26,15,38,14.00
2012,04,26,15,39,14.10
2012,04,26,15,40,14.10
2012,04,26,15,41,14.20
2012,04,26,15,42,14.20
2012,04,26,15,43,14.10
2012,04,26,15,44,14.00
2012,04,26,15,45,13.90
2012,04,26,15,46,13.90
2012,04,26,15,47,13.90
2012,04,26,15,48,14.00
2012,04,26,15,49,14.00
2012,04,26,15,50,14.00
2012,04,26,15,51,13.90
2012,04,26,15,52,13.70
2012,04,26,15,53,13.60
2012,04,26,15,54,13.60
2012,04,26,15,55,13.60
2012,04,26,15,56,13.70
2012,04,26,15,57,13.70
2012,04,26,15,58,13.60
2012,04,26,15,59,13.60
2012,04,26,16,00,13.60
2012,04,26,16,01,13.50
2012,04,26,16,02,13.60
2012,04,26,16,03,13.60
2012,04,26,16,04,13.60
2012,04,26,16,05,13.60
2012,04,26,16,06,13.60
2012,04,26,16,07,13.60
2012,04,26,16,08,13.60
2012,04,26,16,09,13.60
2012,04,26,16,10,13.60
2012,04,26,16,11,13.50
2012,04,26,16,12,13.40
2012,04,26,16,13,13.50
2012,04,26,16,14,13.50
2012,04,26,16,15,13.50
2012,04,26,16,16,13.40
2012,04,26,16,17,13.40
2012,04,26,16,18,13.40
2012,04,26,16,19,13.50
2012,04,26,16,20,13.60
2012,04,26,16,21,13.70
2012,04,26,16,22,13.80
2012,04,26,16,23,13.80
2012,04,26,16,24,13.80
2012,04,26,16,25,13.80
2012,04,26,16,26,13.80
2012,04,26,16,27,13.80
2012,04,26,16,28,13.80
2012,04,26,16,29,13.70
2012,04,26,16,30,13.70
2012,04,26,16,31,13.70
2012,04,26,16,32,13.70
2012,04,26,16,33,13.70
2012,04,26,16,34,13.70
2012,04,26,16,35,13.70
2012,04,26,16,36,13.70
2012,04,26,16,37,13.80
2012,04,26,16,38,13.80
2012,04,26,16,39,13.70
2012,04,26,16,40,13.60
2012,04,26,16,41,13.60
2012,04,26,16,42,13.50
2012,04,26,16,43,13.50
2012,04,26,16,44,13.40
2012,04,26,16,45,13.40
2012,04,26,16,46,13.50
2012,04,26,16,47,13.50
2012,04,26,16,48,13.50
2012,04,26,16,49,13.60
2012,04,26,16,50,13.70
2012,04,26,16,51,13.80
2012,04,26,16,52,13.80
2012,04,26,16,53,13.90
2012,04,26,16,54,13.90
2012,04,26,16,55,13.90
2012,04,26,16,56,13.90
2012,04,26,16,57,13.90
2012,04,26,16,58,13.90
2012,04,26,16,59,13.80
2012,04,26,17,00,13.80
2012,04,26,17,01,13.70
2012,04,26,17,02,13.70
2012,04,26,17,03,13.70
2012,04,26,17,04,13.70
2012,04,26,17,05,13.70
2012,04,26,17,06,13.70
2012,04,26,17,07,13.80
2012,04,26,17,08,13.70
2012,04,26,17,09,13.60
2012,04,26,17,10,13.50
2012,04,26,17,11,13.50
2012,04,26,17,12,13.40
2012,04,26,17,13,13.40
2012,04,26,17,14,13.40
2012,04,26,17,15,13.30
2012,04,26,17,16,13.30
2012,04,26,17,17,13.30
2012,04,26,17,18,13.30
2012,04,26,17,19,13.40
2012,04,26,17,20,13.50
2012,04,26,17,21,13.70
2012,04,26,17,22,13.80
2012,04,26,17,23,13.80
2012,04,26,17,24,13.90
2012,04,26,17,25,13.90
2012,04,26,17,26,13.90
2012,04,26,17,27,14.00
2012,04,26,17,28,14.00
2012,04,26,17,29,13.90
2012,04,26,17,30,13.90
2012,04,26,17,31,13.80
2012,04,26,17,32,13.70
2012,04,26,17,33,13.70
2012,04,26,17,34,13.70
2012,04,26,17,35,13.70
2012,04,26,17,36,13.70
2012,04,26,17,37,13.60
2012,04,26,17,38,13.60
2012,04,26,17,39,13.60
2012,04,26,17,40,13.60
2012,04,26,17,41,13.70
2012,04,26,17,42,13.70
2012,04,26,17,43,13.70
2012,04,26,17,44,13.70
2012,04,26,17,45,13.70
2012,04,26,17,46,13.70
2012,04,26,17,47,13.80
2012,04,26,17,48,13.90
2012,04,26,17,49,13.90
2012,04,26,17,50,13.90
2012,04,26,17,51,13.90
2012,04,26,17,52,13.90
2012,04,26,17,53,13.90
2012,04,26,17,54,13.80
2012,04,26,17,55,13.80
2012,04,26,17,56,13.80
2012,04,26,17,57,13.80
2012,04,26,17,58,13.90
2012,04,26,17,59,13.90
2012,04,26,18,00,13.90
2012,04,26,18,01,13.90
2012,04,26,18,02,13.90
2012,04,26,18,03,13.90
2012,04,26,18,04,13.80
2012,04,26,18,05,13.80
2012,04,26,18,06,13.80
2012,04,26,18,07,13.80
2012,04,26,18,08,13.80
2012,04,26,18,09,13.80
2012,04,26,18,10,13.80
2012,04,26,18,11,13.80
2012,04,26,18,12,13.80
2012,04,26,18,13,13.90
2012,04,26,18,14,13.90
2012,04,26,18,15,13.90
2012,04,26,18,16,13.90
2012,04,26,18,17,14.00
2012,04,26,18,18,14.00
2012,04,26,18,19,14.10
2012,04,26,18,20,14.10
2012,04,26,18,21,14.00
2012,04,26,18,22,13.90
2012,04,26,18,23,13.90
2012,04,26,18,24,13.80
2012,04,26,18,25,13.80
2012,04,26,18,26,13.70
2012,04,26,18,27,13.60
2012,04,26,18,28,13.50
2012,04,26,18,29,13.50
2012,04,26,18,30,13.40
2012,04,26,18,31,13.40
2012,04,26,18,32,13.40
2012,04,26,18,33,13.40
2012,04,26,18,34,13.40
2012,04,26,18,35,13.40
2012,04,26,18,36,13.50
2012,04,26,18,37,13.50
2012,04,26,18,38,13.60
2012,04,26,18,39,13.60
2012,04,26,18,40,13.50
2012,04,26,18,41,13.40
2012,04,26,18,42,13.40
2012,04,26,18,43,13.40
2012,04,26,18,44,13.30
2012,04,26,18,45,13.30
2012,04,26,18,46,13.20
2012,04,26,18,47,13.10
2012,04,26,18,48,13.10
2012,04,26,18,49,13.00
2012,04,26,18,50,13.00
2012,04,26,18,51,13.00
2012,04,26,18,52,13.00
2012,04,26,18,53,13.00
2012,04,26,18,54,13.00
2012,04,26,18,55,12.90
2012,04,26,18,56,13.00
2012,04,26,18,57,13.00
2012,04,26,18,58,13.00
2012,04,26,18,59,13.00
2012,04,26,19,00,13.10
2012,04,26,19,01,13.00
2012,04,26,19,02,13.00
2012,04,26,19,03,12.90
2012,04,26,19,04,12.80
2012,04,26,19,05,12.70
2012,04,26,19,06,12.70
2012,04,26,19,07,12.60
2012,04,26,19,08,12.60
2012,04,26,19,09,12.50
2012,04,26,19,10,12.40
2012,04,26,19,11,12.30
2012,04,26,19,12,12.20
2012,04,26,19,13,12.10
2012,04,26,19,14,12.00
2012,04,26,19,15,12.00
2012,04,26,19,16,11.90
2012,04,26,19,17,11.90
2012,04,26,19,18,11.80
2012,04,26,19,19,11.80
2012,04,26,19,20,11.80
2012,04,26,19,21,11.80
2012,04,26,19,22,11.80
2012,04,26,19,23,11.70
2012,04,26,19,24,11.70
2012,04,26,19,25,11.70
2012,04,26,19,26,11.70
2012,04,26,19,27,11.70
2012,04,26,19,28,11.70
2012,04,26,19,29,11.70
2012,04,26,19,30,11.70
2012,04,26,19,31,11.60
2012,04,26,19,32,11.60
2012,04,26,19,33,11.60
2012,04,26,19,34,11.60
2012,04,26,19,35,11.60
2012,04,26,19,36,11.60
2012,04,26,19,37,11.50
2012,04,26,19,38,11.50
2012,04,26,19,39,11.50
2012,04,26,19,40,11.50
2012,04,26,19,41,11.50
2012,04,26,19,42,11.40
2012,04,26,19,43,11.40
2012,04,26,19,44,11.40
2012,04,26,19,45,11.40
2012,04,26,19,46,11.40
2012,04,26,19,47,11.30
2012,04,26,19,48,11.30
2012,04,26,19,49,11.30
2012,04,26,19,50,11.30
2012,04,26,19,51,11.30
2012,04,26,19,52,11.20
2012,04,26,19,53,11.20
2012,04,26,19,54,11.20
2012,04,26,19,55,11.10
2012,04,26,19,56,11.00
2012,04,26,19,57,11.00
2012,04,26,19,58,10.90
2012,04,26,19,59,10.80
2012,04,26,20,00,10.80
2012,04,26,20,01,10.80
2012,04,26,20,02,10.80
2012,04,26,20,03,10.70
2012,04,26,20,04,10.70
2012,04,26,20,05,10.70
2012,04,26,20,06,10.60
2012,04,26,20,07,10.60
2012,04,26,20,08,10.60
2012,04,26,20,09,10.50
2012,04,26,20,10,10.50
2012,04,26,20,11,10.50
2012,04,26,20,12,10.50
2012,04,26,20,13,10.40
2012,04,26,20,14,10.40
2012,04,26,20,15,10.40
2012,04,26,20,16,10.40
2012,04,26,20,17,10.40
2012,04,26,20,18,10.40
2012,04,26,20,19,10.30
2012,04,26,20,20,10.30
2012,04,26,20,21,10.30
2012,04,26,20,22,10.20
2012,04,26,20,23,10.20
2012,04,26,20,24,10.20
2012,04,26,20,25,10.10
2012,04,26,20,26,10.10
2012,04,26,20,27,10.10
2012,04,26,20,28,10.00
2012,04,26,20,29,10.00
2012,04,26,20,30,9.90
2012,04,26,20,31,9.90
2012,04,26,20,32,9.80
2012,04,26,20,33,9.80
2012,04,26,20,34,9.80
2012,04,26,20,35,9.80
2012,04,26,20,36,9.80
2012,04,26,20,37,9.70
2012,04,26,20,38,9.70
2012,04,26,20,39,9.70
2012,04,26,20,40,9.70
2012,04,26,20,41,9.70
2012,04,26,20,42,9.70
2012,04,26,20,43,9.60
2012,04,26,20,44,9.60
2012,04,26,20,45,9.60
2012,04,26,20,46,9.60
2012,04,26,20,47,9.60
2012,04,26,20,48,9.60
2012,04,26,20,49,9.60
2012,04,26,20,50,9.60
2012,04,26,20,51,9.60
2012,04,26,20,52,9.60
2012,04,26,20,53,9.60
2012,04,26,20,54,9.60
2012,04,26,20,55,9.60
2012,04,26,20,56,9.60
2012,04,26,20,57,9.60
2012,04,26,20,58,9.60
2012,04,26,20,59,9.60
2012,04,26,21,00,9.60
2012,04,26,21,01,9.60
2012,04,26,21,02,9.60
2012,04,26,21,03,9.60
2012,04,26,21,04,9.60
2012,04,26,21,05,9.60
2012,04,26,21,06,9.60
2012,04,26,21,07,9.60
2012,04,26,21,08,9.60
2012,04,26,21,09,9.50
2012,04,26,21,10,9.50
2012,04,26,21,11,9.40
2012,04,26,21,12,9.40
2012,04,26,21,13,9.40
2012,04,26,21,14,9.40
2012,04,26,21,15,9.40
2012,04,26,21,16,9.40
2012,04,26,21,17,9.40
2012,04,26,21,18,9.40
2012,04,26,21,19,9.40
2012,04,26,21,20,9.40
2012,04,26,21,21,9.40
2012,04,26,21,22,9.40
2012,04,26,21,23,9.40
2012,04,26,21,24,9.40
2012,04,26,21,25,9.40
2012,04,26,21,26,9.40
2012,04,26,21,27,9.40
2012,04,26,21,28,9.40
2012,04,26,21,29,9.40
2012,04,26,21,30,9.40
2012,04,26,21,31,9.30
2012,04,26,21,32,9.30
2012,04,26,21,33,9.30
2012,04,26,21,34,9.30
2012,04,26,21,35,9.30
2012,04,26,21,36,9.30
2012,04,26,21,37,9.30
2012,04,26,21,38,9.30
2012,04,26,21,39,9.30
2012,04,26,21,40,9.30
2012,04,26,21,41,9.30
2012,04,26,21,42,9.30
2012,04,26,21,43,9.30
2012,04,26,21,44,9.30
2012,04,26,21,45,9.30
2012,04,26,21,46,9.30
2012,04,26,21,47,9.30
2012,04,26,21,48,9.20
2012,04,26,21,49,9.20
2012,04,26,21,50,9.20
2012,04,26,21,51,9.20
2012,04,26,21,52,9.10
2012,04,26,21,53,9.10
2012,04,26,21,54,9.10
2012,04,26,21,55,9.10
2012,04,26,21,56,9.10
2012,04,26,21,57,9.10
2012,04,26,21,58,9.00
2012,04,26,21,59,9.00
2012,04,26,22,00,9.00
2012,04,26,22,01,8.90
2012,04,26,22,02,8.90
2012,04,26,22,03,8.90
2012,04,26,22,04,8.90
2012,04,26,22,05,8.90
2012,04,26,22,06,8.90
2012,04,26,22,07,8.90
2012,04,26,22,08,8.90
2012,04,26,22,09,8.90
2012,04,26,22,10,8.90
2012,04,26,22,11,8.80
2012,04,26,22,12,8.80
2012,04,26,22,13,8.80
2012,04,26,22,14,8.80
2012,04,26,22,15,8.80
2012,04,26,22,16,8.80
2012,04,26,22,17,8.80
2012,04,26,22,18,8.80
2012,04,26,22,19,8.80
2012,04,26,22,20,8.80
2012,04,26,22,21,8.80
2012,04,26,22,22,8.80
2012,04,26,22,23,8.80
2012,04,26,22,24,8.80
2012,04,26,22,25,8.80
2012,04,26,22,26,8.80
2012,04,26,22,27,8.80
2012,04,26,22,28,8.80
2012,04,26,22,29,8.80
2012,04,26,22,30,8.70
2012,04,26,22,31,8.70
2012,04,26,22,32,8.70
2012,04,26,22,33,8.70
2012,04,26,22,34,8.60
2012,04,26,22,35,8.60
2012,04,26,22,36,8.60
2012,04,26,22,37,8.60
2012,04,26,22,38,8.60
2012,04,26,22,39,8.60
2012,04,26,22,40,8.60
2012,04,26,22,41,8.50
2012,04,26,22,42,8.50
2012,04,26,22,43,8.50
2012,04,26,22,44,8.50
2012,04,26,22,45,8.40
2012,04,26,22,46,8.40
2012,04,26,22,47,8.40
2012,04,26,22,48,8.40
2012,04,26,22,49,8.40
2012,04,26,22,50,8.40
2012,04,26,22,51,8.40
2012,04,26,22,52,8.40
2012,04,26,22,53,8.40
2012,04,26,22,54,8.40
2012,04,26,22,55,8.40
2012,04,26,22,56,8.40
2012,04,26,22,57,8.40
2012,04,26,22,58,8.40
2012,04,26,22,59,8.40
2012,04,26,23,00,8.40
2012,04,26,23,01,8.30
2012,04,26,23,02,8.30
2012,04,26,23,03,8.30
2012,04,26,23,04,8.30
2012,04,26,23,05,8.20
2012,04,26,23,06,8.20
2012,04,26,23,07,8.20
2012,04,26,23,08,8.20
2012,04,26,23,09,8.20
2012,04,26,23,10,8.20
2012,04,26,23,11,8.20
2012,04,26,23,12,8.20
2012,04,26,23,13,8.10
2012,04,26,23,14,8.10
2012,04,26,23,15,8.10
2012,04,26,23,16,8.10
2012,04,26,23,17,8.10
2012,04,26,23,18,8.10
2012,04,26,23,19,8.10
2012,04,26,23,20,8.10
2012,04,26,23,21,8.10
2012,04,26,23,22,8.00
2012,04,26,23,23,8.00
2012,04,26,23,24,8.00
2012,04,26,23,25,8.00
2012,04,26,23,26,7.90
2012,04,26,23,27,7.90
2012,04,26,23,28,7.90
2012,04,26,23,29,7.90
2012,04,26,23,30,7.90
2012,04,26,23,31,7.90
2012,04,26,23,32,7.80
2012,04,26,23,33,7.80
2012,04,26,23,34,7.80
2012,04,26,23,35,7.80
2012,04,26,23,36,7.80
2012,04,26,23,37,7.80
2012,04,26,23,38,7.80
2012,04,26,23,39,7.80
2012,04,26,23,40,7.70
2012,04,26,23,41,7.70
2012,04,26,23,42,7.70
2012,04,26,23,43,7.70
2012,04,26,23,44,7.60
2012,04,26,23,45,7.60
2012,04,26,23,46,7.60
2012,04,26,23,47,7.60
2012,04,26,23,48,7.60
2012,04,26,23,49,7.60
2012,04,26,23,50,7.60
2012,04,26,23,51,7.50
2012,04,26,23,52,7.50
2012,04,26,23,53,7.50
2012,04,26,23,54,7.50
2012,04,26,23,55,7.50
2012,04,26,23,56,7.50
2012,04,26,23,57,7.50
2012,04,26,23,58,7.50
2012,04,26,23,59,7.50
